Weather observations for the past three days for
West Palm Beach - Palm Beach International Airport
Imperial (Metric)
Date Time (edt) Wind (mph) Vis. (mi.) Weather Sky Cond. Temperature (ºF) Relative Humidity Wind Chill (°F) Heat Index (°F) Pressure Precipitation (in)
Air Dwpt 6 hour altimeter (in) sea level (mb) 1 hr 3 hr 6 hr
Max. Min.
22 12:53 SE 12 10.00 Mostly Cloudy FEW018 SCT026 SCT150 BKN250 86 79 80% 100 30.1 1019.1
22 11:53 SE 8 10.00 Mostly Cloudy BKN026 BKN070 BKN250 86 82 88% 104 30.1 1019.3
22 10:53 SE 15 10.00 Mostly Cloudy SCT021 BKN033 BKN150 BKN250 86 80.1 83% 101 30.1 1019.1
22 09:53 E 15 10.00 Mostly Cloudy SCT018 SCT150 BKN250 87.1 80.1 80% 103 30.09 1018.8
22 08:53 E 17 10.00 Thunderstorm FEW018 SCT026CB SCT070 BKN250 86 81 85% 102 30.09 1018.9
22 07:53 SE 16 10.00 Thunderstorm SCT021CB SCT030 SCT060 BKN250 84.9 81 84.9 77 88% 100 30.07 1018.3 0.02 0.07
22 06:53 E 12 10.00 Mostly Cloudy FEW015 SCT022 SCT040 BKN220 82.9 80.1 91% 95 30.05 1017.6
22 05:53 SE 8 10.00 Mostly Cloudy FEW020 BKN220 82 80.1 94% 93 30.04 1017.2
22 04:53 SE 8 10.00 Mostly Cloudy BKN210 82 79 90% 92 30.04 1017.0 0.05
22 03:53 Calm 10.00 Mostly Cloudy FEW016 SCT024 SCT038 BKN190 79 77 94% 83 30.05 1017.4
22 02:53 Vrbl 3 6.00 Thunderstorm Light Rain Fog/Mist BKN016CB OVC027 79 75.9 90% 83 30.06 1017.9 0.05
22 01:53 E 10 10.00 Thunderstorm Light Rain FEW018CB SCT050 BKN070 82.9 81 84.9 82.9 94% 96 30.08 1018.4 0.02 0.02
22 00:53 SE 14 10.00 Mostly Cloudy FEW018 SCT027 SCT044 BKN250 84 80.1 88% 97 30.08 1018.5
21 23:53 E 12 10.00 Partly Cloudy SCT018 SCT025 SCT250 84 81 91% 98 30.09 1018.8
21 22:53 SE 12 10.00 Partly Cloudy SCT018 SCT250 84 80.1 88% 97 30.09 1018.8
21 21:53 E 13 10.00 A Few Clouds FEW020 FEW250 84 80.1 88% 97 30.08 1018.6
21 20:53 SE 12 10.00 Partly Cloudy SCT019 SCT250 84.9 79 82% 98 30.07 1018.2
21 19:53 E 14 10.00 Partly Cloudy SCT020 SCT250 84.9 79 89.1 84.9 82% 98 30.04 1017.1
21 18:53 SE 15 10.00 Partly Cloudy SCT021 SCT250 87.1 78.1 75% 100 30.03 1016.9
21 17:53 E 13 10.00 Partly Cloudy SCT025 SCT250 87.1 79 77% 101 30.03 1016.9
21 16:53 SE 12 10.00 Partly Cloudy SCT023 SCT250 88 78.1 73% 102 30.04 1017.3
21 15:53 SE 12 10.00 Partly Cloudy SCT026 SCT250 89.1 78.1 70% 103 30.06 1017.7
21 14:53 E 12 G 20 10.00 Partly Cloudy SCT027 SCT250 89.1 78.1 70% 103 30.07 1018.1
21 13:53 E 10 10.00 Partly Cloudy SCT032 SCT250 88 73.9 89.1 80.1 63% 97 30.08 1018.5
21 12:53 SE 15 10.00 Partly Cloudy SCT027 SCT250 88 77 70% 100 30.09 1018.9
21 11:53 E 14 10.00 Partly Cloudy FEW025 SCT250 88 77 70% 100 30.09 1019.0
21 10:53 E 12 10.00 Mostly Cloudy SCT024 BKN034 BKN250 87.1 75.9 70% 98 30.09 1018.9
21 09:53 E 9 10.00 Mostly Cloudy SCT023 BKN032 BKN250 84.9 77 77% 95 30.08 1018.4
21 08:53 Calm 10.00 Partly Cloudy SCT028 SCT250 81 78.1 91% 89 30.07 1018.1
21 07:53 N 6 10.00 Partly Cloudy FEW021 SCT250 80.1 77 80.1 75 90% 86 30.06 1017.8
21 06:53 NW 5 10.00 Partly Cloudy FEW035 SCT250 75 75 100% 72 30.05 1017.6
21 05:53 NW 3 10.00 A Few Clouds FEW022 75.9 75.9 100% 75 30.05 1017.5
21 04:53 NW 5 10.00 Partly Cloudy SCT022 75.9 75.9 100% 75 30.04 1017.2
21 03:53 NW 5 10.00 Partly Cloudy SCT020 77 75.9 96% 78 30.04 1017.1
21 02:53 NW 6 10.00 Partly Cloudy SCT019 SCT050 77 75.9 96% 78 30.05 1017.5
21 01:53 NW 5 10.00 Fair CLR 77 73.9 84 77 90% 78 30.07 1018.1
21 00:53 N 5 10.00 Fair CLR 80.1 73 79% 84 30.07 1018.1
20 23:53 NE 5 10.00 Partly Cloudy SCT040 81 73 77% 86 30.09 1018.8
20 22:53 N 9 10.00 Partly Cloudy FEW023 SCT040 82 75 79% 89 30.09 1018.7
20 21:53 NE 9 10.00 Partly Cloudy FEW023 SCT029 SCT040 82 75 79% 89 30.07 1018.2
20 20:53 N 6 10.00 Partly Cloudy SCT021 SCT040 79 75.9 90% 83 30.06 1017.9
20 19:53 NE 15 G 20 10.00 Mostly Cloudy SCT024 SCT030 BKN036 84 75 88 84 74% 92 30.05 1017.6
20 18:53 NE 9 10.00 Partly Cloudy SCT026 SCT035 84.9 75 72% 93 30.05 1017.5
20 17:53 NE 12 10.00 Partly Cloudy SCT028 86 73.9 67% 94 30.05 1017.3
20 16:53 N 14 10.00 Partly Cloudy SCT028 SCT045 86 73.9 67% 94 30.06 1017.7
20 15:53 NE 14 10.00 Partly Cloudy FEW029 SCT036 SCT045 86 73.9 67% 94 30.06 1017.9
20 14:53 N 16 G 23 10.00 Mostly Cloudy BKN033 BKN250 88 73.9 63% 97 30.08 1018.4
20 13:53 E 13 G 23 10.00 Mostly Cloudy BKN032 BKN250 87.1 73.9 87.1 81 65% 95 30.08 1018.7
20 12:53 E 15 G 23 10.00 Partly Cloudy SCT028 SCT039 SCT250 84.9 73.9 70% 92 30.1 1019.3
20 11:53 E 18 10.00 Partly Cloudy SCT027 SCT250 86 73.9 67% 94 30.11 1019.5
20 10:53 NE 14 10.00 Mostly Cloudy SCT026 SCT110 BKN250 86 73.9 67% 94 30.09 1019.0
20 09:53 E 15 G 30 10.00 Partly Cloudy SCT029 SCT250 86 72 63% 92 30.08 1018.7
20 08:53 NE 16 G 26 10.00 Mostly Cloudy SCT025 BKN041 BKN090 82.9 73.9 74% 89 30.06 1018.0
20 07:53 NE 16 G 30 10.00 Thunderstorm SCT023 BKN036CB BKN060 81 75.9 82 77 85% 87 30.05 1017.4 0.25 0.36
20 06:53 NE 13 10.00 Mostly Cloudy SCT020CB BKN055 BKN130 79 75.9 90% 83 30.03 1016.9 0.11
20 05:53 E 13 10.00 Mostly Cloudy FEW018 SCT043 BKN080 81 75.9 85% 87 30.02 1016.6
20 04:53 E 13 G 23 10.00 Mostly Cloudy FEW019 SCT026 BKN050 82 75.9 82% 89 30.01 1016.0
20 03:53 E 18 10.00 Partly Cloudy SCT019 82 75.9 82% 89 30 1015.8
20 02:53 E 12 G 23 10.00 Partly Cloudy SCT020 82 77 85% 90 30.01 1016.1
20 01:53 E 14 10.00 Partly Cloudy SCT023 SCT035 82 75.9 84 77 82% 89 30.02 1016.5 0.34
20 00:53 E 15 10.00 Partly Cloudy SCT019 82 77 85% 90 30.03 1016.8
19 23:53 E 16 10.00 Partly Cloudy SCT023 82 75.9 82% 89 30.04 1017.2
19 22:53 E 16 G 24 10.00 Partly Cloudy SCT024 SCT060 82 75.9 82% 89 30.04 1017.2 0.34
19 21:53 E 13 10.00 Partly Cloudy FEW024 SCT032 SCT250 81 75.9 85% 87 30.02 1016.6
19 20:53 NE 8 10.00 Thunderstorm SCT017 BKN028CB OVC040 80.1 77 90% 86 30.02 1016.4 0.34
19 19:53 NE 15 G 23 10.00 Mostly Cloudy SCT025 BKN250 84 75.9 89.1 84 77% 93 30.01 1016.1
19 18:53 NE 17 G 26 10.00 Partly Cloudy SCT028 SCT080 84.9 75 72% 93 30 1015.9
19 17:53 NE 15 10.00 Mostly Cloudy SCT028 BKN080 BKN250 86 75.9 72% 96 30.01 1016.0
19 16:53 NE 18 10.00 Mostly Cloudy SCT026 BKN110 BKN250 86 75.9 72% 96 30.01 1016.2
19 15:53 NE 17 G 24 10.00 Mostly Cloudy SCT030 SCT050 BKN250 88 75.9 68% 99 30.01 1016.3
19 14:53 E 20 10.00 Mostly Cloudy SCT027 BKN100 BKN200 88 75 66% 98 30.03 1016.8
19 13:53 NE 20 G 31 10.00 Mostly Cloudy SCT024CB SCT046 BKN250 88 75.9 89.1 82.9 68% 99 30.04 1017.3
Date Time (edt) Wind (mph) Vis. (mi.) Weather Sky Cond. Air Dwpt Max. Min. Relative Humidity Wind Chill (°F) Heat Index (°F) altimeter (in) sea level (mb) 1 hr 3 hr 6 hr
6 hour
Temperature (ºF) Pressure Precipitation (in)